Location: �clusier
(49.9361°N, 2.7869°E)
Time: 19:22:16
(UTC+00:00)

Cosmos 1452 Rocket - Pass Details

Date: 01 November 2021
Orbit: 767 x 775 km, 74.1° (Epoch: 04 December)

Event Time Altitude Azimuth Distance (km) Brightness Sun altitude
Rises 05:53:47 0° 327° (NNW) 3,265 6.3 -7.7°
Reaches altitude 10° 05:56:30 10° 315° (NW) 2,332 5.5 -7.3°
Maximum altitude 06:00:48 26° 261° (W) 1,499 4.5 -6.6°
Drops below altitude 10° 06:05:04 10° 206° (SSW) 2,315 5.9 -5.9°
Sets 06:07:46 0° 194° (SSW) 3,236 6.8 -5.5°
